Simultaneous Nadir Overpasses (SNOs) Predictions

Prediction of SNOs between NOAA-20 and NOAA-19 Satellite Orbit:

Table of predicted SNOs for the next 14.0 days since TLE Epoch: 1/6/2024
Index Date (NOAA-20) Time (NOAA-20) Lat,Lon (NOAA-20) SZA (NOAA-20 ) Date (NOAA-19) Time (NOAA-19) Lat,Lon (NOAA-19) SZA (NOAA-19 ) Distance(km) Time Diff (sec)
1 01/13/2024 05:11:15 -73.71, -88.03 84.48 01/13/2024 05:10:04 -73.73, -89.54 84.35 47.15 71
2 01/13/2024 06:02:06 73.96, 78.66 95.81 01/13/2024 06:00:52 73.96, 78.33 95.84 10.30 74
3 01/13/2024 06:52:52 -74.06,-114.25 84.10 01/13/2024 06:51:56 -74.04,-114.23 84.10 2.25 56
4 01/13/2024 07:43:38 74.07, 53.03 95.92 01/13/2024 07:42:48 74.08, 53.15 95.93 3.78 50
5 01/13/2024 08:34:22 -74.07,-139.65 84.10 01/13/2024 08:33:54 -74.06,-139.66 84.10 0.58 28
6 01/13/2024 09:25:08 74.08, 27.63 95.91 01/13/2024 09:24:47 74.05, 27.59 95.89 3.21 21
7 01/13/2024 10:15:52 -74.07,-165.04 84.10 01/13/2024 10:15:52 -74.09,-165.09 84.09 2.18 0
8 01/13/2024 11:06:38 74.09, 2.24 95.91 01/13/2024 11:06:45 74.07, 2.16 95.90 2.69 7
9 01/13/2024 11:57:23 -74.13, 169.45 84.05 01/13/2024 11:57:50 -74.11, 169.48 84.08 2.40 27
10 01/13/2024 12:48:08 74.09, -23.15 95.91 01/13/2024 12:48:43 74.10, -23.27 95.91 3.63 35
11 01/13/2024 13:38:53 -74.14, 144.06 84.06 01/13/2024 13:39:48 -74.13, 144.05 84.07 0.47 55
12 01/13/2024 14:29:39 74.15, -48.67 95.96 01/13/2024 14:30:41 74.12, -48.70 95.92 3.19 62
13 01/13/2024 15:20:30 -74.48, 117.79 83.67 01/13/2024 15:21:40 -74.44, 119.39 83.83 48.20 70
14 01/13/2024 16:11:21 74.74, -75.60 96.62 01/13/2024 16:12:27 74.72, -72.54 96.41 89.42 66



Historial Predications of SNOs between NOAA-20 and NOAA-19
